Regional Weather Roundup
Issued by NWS

Home | Current Version | Previous Version | Text Only | Print | Product List | Glossary On
Versions: 1 2 3 4 5 6 7 8 9 10 11 12 13 14 15 16 17 18 19 20 21 22 23 24 25 26 27 28 29 30 31 32 33 34 35 36 37 38 39 40 41 42 43 44 45 46 47 48 49 50
000
ASUS45 KTFX 211104
RWRMT
MONTANA HOURLY WEATHER ROUNDUP
NATIONAL WEATHER SERVICE GREAT FALLS MT
504 AM MDT SUN SEP 21 2014

NOTE: "FAIR" INDICATES FEW OR NO CLOUDS BELOW 12000 FEET WITH NO
SIGNIFICANT WEATHER AND/OR OBSTRUCTIONS TO VISIBILITY.

* THESE STATIONS ARE NOT UNDER NWS QUALITY CONTROL. THEY DO NOT
   REPORT WEATHER SUCH AS PRECIPITATION OR FOG.

MTZ001>007-043-211200-
WEST OF THE DIVIDE
CITY           SKY/WX    TMP DP  RH WIND       PRES   REMARKS
KALISPELL      CLEAR     45  41  86 CALM      30.16S
MISSOULA       CLEAR     45  37  74 SW5       30.19S
BUTTE          CLEAR     43  36  76 CALM      30.31R
MULLAN PASS    CLEAR     55  36  49 SE13G24   30.24S
* ESSEX        N/A       48  40  74 S13G18     N/A
* LINCOLN      N/A       38  35  89 W2         N/A
* LOOKOUT PASS N/A       49  38  66 S2         N/A
* POLSON       N/A       52  41  66 N/A        N/A
* RONAN APT    CLEAR     41  36  82 N/A        N/A
* SEELEY LAKE  N/A       36  32  85 E2         N/A
* THOMP F APT  CLEAR     53  33  47 NE3G11     N/A
$$

MTZ008-052>055-211200-
SOUTHWEST MONTANA
CITY           SKY/WX    TMP DP  RH WIND       PRES   REMARKS
BOZEMAN        CLEAR     41  39  93 CALM      30.28S
DILLON         PTCLDY    45  36  71 CALM      30.27F
W YELLOWSTONE  CLEAR     32  30  92 CALM      30.36S
* THREE FORKS  CLEAR     41  25  53 N/A        N/A
* BOULDER HILL N/A       49  36  61 S4         N/A
* MONIDA PASS  N/A       43  35  73 W4         N/A
* RAYNOLDS PAS N/A       41  39  93 N/A        N/A
* WHITEHALL    N/A       47  38  71 N3         N/A
* WISE RIVER   N/A       39  30  70 SE2        N/A
$$

MTZ009>010-012-014-046-048-049-054-211200-
EAST SLOPES AND CENTRAL MONTANA
CITY           SKY/WX    TMP DP  RH WIND       PRES   REMARKS
CUT BANK       CLEAR     43  37  79 CALM      30.25F
GREAT FALLS    CLEAR     45  41  86 SW8       30.25S
HELENA         CLEAR     46  39  77 W5        30.26S
MALMSTROM AFB  CLEAR     46  41  83 W3        30.27R
* CONRAD       CLEAR     37  37 100 N/A        N/A
* EAST GLACIER N/A       43  40  89 NW9        N/A
* MONARCH      N/A       42  35  76 NW1        N/A
* PENDROY      N/A       48  42  80 SW3        N/A
* ROGERS PASS  N/A       47  39  74 NW2        N/A
* SAINT MARY   N/A       36  35  96 S3         N/A
* SWEET GRASS  N/A       51  35  54 S15        N/A
$$

MTZ011-013-016-021-035-040-045-047-050-051-211200-
NORTH CENTRAL MONTANA
CITY           SKY/WX    TMP DP  RH WIND       PRES   REMARKS
HAVRE          CLEAR     43  37  79 E3        30.26R
LEWISTOWN      CLEAR     48  37  66 E12       30.29S
* CHESTER      N/A       42  35  76 N2         N/A
* DENTON       N/A       49  41  74 S6         N/A
* GEYSER       N/A       42  40  93 S8         N/A
* JUDITH GAP   N/A       44  42  93 S4         N/A
* LOMA         N/A       47  39  74 NE9        N/A
$$

MTZ017>020-022>027-061-062-211200-
NORTHEAST MONTANA
CITY           SKY/WX    TMP DP  RH WIND       PRES   REMARKS
GLASGOW        CLEAR     43  36  76 CALM      30.27R
JORDAN         CLEAR     37  36  96 W6        30.29S WCI  32
SIDNEY         CLEAR     37  34  89 S6        30.29R WCI  32
WOLF POINT     CLEAR     39  36  89 SW5       30.28S WCI  35
* BEAVER HILL  N/A       46  34  63 S7         N/A
* CIRCLE       N/A       40  35  82 N/A        N/A
* LINDSAY DVD  N/A       45  34  65 W3         N/A
$$

MTZ028>042-056>058-211200-
SOUTHCENTRAL AND SOUTHEAST MONTANA
CITY           SKY/WX    TMP DP  RH WIND       PRES   REMARKS
BAKER          CLEAR     37  34  89 CALM      30.31S
BILLINGS       CLEAR     52  39  61 N6        30.28S
LIVINGSTON     CLEAR     43  37  79 NW5       30.31S
MILES CITY     CLEAR     45  37  74 CALM      30.29S
* LAUREL APT   CLEAR     50  37  61 N/A        N/A
* ROUNDUP APT  CLEAR     46  37  71 N/A        N/A
* ALZADA       N/A       40  36  86 E3         N/A
* HYSHAM       N/A       53  34  49 E4         N/A
* LAME DEER    N/A       54  34  47 SE6        N/A
* REED POINT   N/A       41  40  96 N/A        N/A
* ROSCOE HILL  N/A       50  35  57 SW6        N/A
$$

REGIONAL REPORTS...DAKOTAS
CITY           SKY/WX    TMP DP  RH WIND       PRES   REMARKS
WILLISTON      CLEAR     43  36  76 SW9       30.26R
DICKINSON      CLEAR     39  34  82 W8        30.26R WCI  33
BEACH          N/A       41  36  82 CALM      30.30R
CROSBY         CLEAR     45  41  86 SW7       30.24R
TIOGA          CLEAR     37  37 100 W6        30.27R WCI  32
WATFORD CITY   CLEAR     39  34  82 S3        30.24R
BISMARCK       CLEAR     48  43  83 NW8       30.22R
GRAND FORKS    CLEAR     50  46  86 NW8       30.09R
FARGO          CLEAR     48  46  93 NW8       30.09R
RAPID CITY     CLEAR     46  36  68 NW10      30.32S
$$

REGIONAL REPORTS...WYOMING/IDAHO/WASHINGTON
CITY           SKY/WX    TMP DP  RH WIND       PRES   REMARKS
GILLETTE       CLEAR     39  36  89 S5        30.34S WCI  35
SHERIDAN       CLEAR     39  37  93 CALM      30.30F
CODY           PTCLDY   N/A N/A N/A N/A        N/A
YELLOWSTONE LA CLEAR     34  32  92 CALM      30.44R
SALMON         PTCLDY    46  37  71 CALM      30.18S
MULLAN PASS    CLEAR     55  36  49 SE13G24   30.24S
SAND POINT     CLEAR     46  45  96 W3        30.08R
SPOKANE        CLEAR     61  45  56 NE8       30.02F

$$




USA.gov is the U.S. government's official web portal to all federal, state and local government web resources and services.